星链-5991 (STARLINK-5991 )

导读

STARLINK-5991是美国太空探索技术公司(SpaceX)星链计划中的卫星,于北京时间2023年4月27日8时发射入轨,属于星链星座组网卫星,旨在为全球提供高速低延迟互联网宽带服务,进一步扩充星链星座在轨卫星规模,推动全球覆盖网络的搭建。

Basic Information
目录编号:
56331
目录名称:
STARLINK-5991
国际标识:
2023-058Q
轨道中心:
EARTH
卫星名称:
星链-5991
卫星全名:
星链-5991 (STARLINK-5991 )
卫星状态:
在轨 (已飞行1145 天)
发射日期:
2023-04-27 UTC
国别 :
美国 (US)
星等 :
--
Orbit Information
数据来源 国际轨道数据 AOE轨道数据
星历时间 2026-06-14T22:32:41+0800
9小时前
查看轨道信息
2026-06-11T11:00:00+0800
3天前
查看轨道信息
半长轴 6928.085km 6927.637km
偏心率 0.0002152 0.0001287
轨道倾角 97.361° 97.386°
近地点辐角 89.813° 92.469°
升交点赤经 164.687° 161.368°
平近点角 270.335° 131.854°
近地点 548.457km 548.608km
远地点 551.439km 550.392km
周期 95.649分钟 95.640分钟
每日圈数 15.055076 15.056538
Detailed Information
固有亮度:
5
最大亮度:
2.5
卫星平台:
Starlink v1.5
覆盖范围:
全球
运营商:
太空探索技术公司
运营商所在国:
美国
制造商(研发单位):
太空探索技术公司
制造商所在国:
美国
使用方式:
暂无
Satellite Introduction
星链(Starlink)计划是由太空探索技术公司(SpaceX)提出的一个巨型低轨卫星互联网星座项目,计划在2019年至2024年间在太空搭建由约1.2万颗卫星组成的“星链”网络,其中1584颗将部署在地球上空550千米处的近地轨道,并从2020年开始工作。该卫星仍在工作。
2D Orbit Map
3D Orbit Map
Orbit Altitude Analysis Chart
Orbit Inclination Analysis Chart
Orbit Comprehensive Analysis Chart
View Comprehensive Chart